Content
SEND FEEDBACK

Daily
Averages
Monthly
Summary
France

OISSEL, FRANCE


Home > Europe > France
Elevation: 515 feet     Latitude: 49 22N     Longitude: 001 10E

WEATHER
 
SELECT A DAY
Number of Records: 173,411;   Date Range: 7/1/96 - 8/10/14
 
SHARE

PRINT THIS DATA

[ ← Previous Day ]
WEATHER ALMANAC - JANUARY 18, 2013
[ Next Day → ]
[ °C ]   °F
Weather ElementAverageHighLow
Temperature24.3 °F27 °F (7:00 pm)19.4 °F (4:00 am)
Dewpoint21.3 °F25 °F (7:00 pm)17 °F (1:00 am)
Humidity88 %93 % (4:00 am)75 % (1:00 am)
Barometer29.64 in29.96 in (1:00 am)29.36 in (11:30 pm)
Wind Speed12 mph18.4 mph (11:30 am)
Weather ElementAverage
Visibility2.2 mi
Wind DirectionESE (128.8 °)

Weather ElementTotal
Precipitation---
Heating Degree Days41.8 (Base 65)
Averaged from 50 records on January 18, 2013
WEATHER CONDITIONS BREAKOUT
WIND DIRECTION BREAKOUT
WEATHER BY HOUR - JANUARY 18, 2013
[ °C ]   °F
Local TimeTemperatureDewpointHumidityBarometerVisibilityWind DirectionWind SpeedGust SpeedPrecipitationEventsConditions
12:30 AM23.0 °F17.6 °F80 %29.92 in3.7 miESE (110°)8.1 mph
1:00 AM22.0 °F17.0 °F75 %29.96 in4.0 miESE (120°)6.9 mphClear
1:00 AM21.2 °F17.6 °F86 %29.92 in3.7 miESE (120°)6.9 mph
1:30 AM21.2 °F17.6 °F86 %29.89 in3.7 miESE (120°)8.1 mph
2:00 AM21.2 °F17.6 °F86 %29.89 in3.1 miESE (120°)5.8 mphMist
2:30 AM21.2 °F17.6 °F86 %29.89 in2.5 miESE (110°)6.9 mphMostly Cloudy
3:00 AM21.2 °F17.6 °F86 %29.86 inESE (110°)6.9 mphOvercast
3:30 AM21.2 °F17.6 °F86 %29.86 in1.7 miESE (110°)6.9 mphOvercast
4:00 AM19.4 °F17.6 °F93 %29.86 in1.4 miESE (110°)6.9 mphOvercast
4:30 AM19.4 °F17.6 °F93 %29.86 in1.3 miESE (110°)4.6 mphOvercast
5:00 AM21.2 °F19.4 °F93 %29.83 in1.2 miESE (110°)6.9 mphOvercast
5:30 AM21.2 °F19.4 °F93 %29.83 in1.2 miESE (110°)9.2 mphOvercast
6:00 AM21.2 °F19.4 °F93 %29.80 in1.4 miESE (120°)10.4 mphOvercast
6:30 AM21.2 °F19.4 °F93 %29.80 inSE (140°)8.1 mphOvercast
7:00 AM22.0 °F20.0 °F87 %29.85 in2.0 miSE (140°)9.2 mphMist
7:00 AM23.0 °F19.4 °F86 %29.80 in2.2 miSE (140°)9.2 mphOvercast
7:30 AM23.0 °F19.4 °F86 %29.77 inSE (140°)9.2 mphOvercast
8:00 AM23.0 °F19.4 °F86 %29.74 inSE (140°)13.8 mphOvercast
8:30 AM23.0 °F19.4 °F86 %29.71 inSE (140°)13.8 mphOvercast
9:00 AM23.0 °F19.4 °F86 %29.71 inSE (130°)15.0 mphMist
9:30 AM23.0 °F19.4 °F86 %29.71 inSE (140°)16.1 mphOvercast
10:00 AM23.0 °F19.4 °F86 %29.68 inSE (140°)13.8 mphOvercast
10:30 AM24.8 °F21.2 °F86 %29.68 in3.1 miSE (140°)12.7 mphOvercast
11:00 AM24.8 °F19.4 °F80 %29.68 in5.6 miSE (140°)15.0 mphOvercast
11:30 AM24.8 °F21.2 °F86 %29.65 in6.2 miSSE (150°)18.4 mphMostly Cloudy
12:00 PM26.6 °F21.2 °F80 %29.65 in6.2 miSSE (150°)17.3 mphOvercast
12:30 PM24.8 °F21.2 °F86 %29.62 in1.6 miSE (140°)18.4 mphSnowSnow
1:00 PM24.8 °F23.0 °F93 %29.59 inSE (140°)17.3 mphSnowLight Snow
1:30 PM26.6 °F23.0 °F86 %29.56 in1.9 miSE (140°)15.0 mphSnowLight Snow
2:00 PM26.6 °F23.0 °F86 %29.56 inSE (140°)16.1 mphSnowLight Snow
2:30 PM26.6 °F23.0 °F86 %29.53 in1.9 miSE (140°)16.1 mphSnowLight Snow
3:00 PM26.6 °F23.0 °F86 %29.53 in2.2 miSE (140°)16.1 mphSnowLight Snow
3:30 PM26.6 °F23.0 °F86 %29.50 in0.8 miSE (130°)15.0 mphSnowSnow
4:00 PM26.6 °F23.0 °F86 %29.47 in1.4 miSE (130°)15.0 mphSnowLight Snow
4:30 PM26.6 °F23.0 °F86 %29.47 inSE (130°)12.7 mphSnowLight Snow
5:00 PM26.6 °F23.0 °F86 %29.47 inSE (130°)16.1 mphSnowLight Snow
5:30 PM26.6 °F23.0 °F86 %29.44 in3.7 miSE (130°)17.3 mphRainRain
6:00 PM26.6 °F23.0 °F86 %29.44 inSE (130°)15.0 mphSnowLight Snow
6:30 PM26.6 °F24.8 °F93 %29.44 in1.4 miSE (140°)12.7 mphSnowSnow
7:00 PM27.0 °F25.0 °F88 %29.48 in1.0 miSE (130°)10.4 mphSnowSnow
7:00 PM26.6 °F24.8 °F93 %29.44 in0.6 miSE (130°)11.5 mphFog-SnowSnow
7:30 PM26.6 °F24.8 °F93 %29.42 inESE (120°)11.5 mphFog-SnowSnow
8:00 PM26.6 °F24.8 °F93 %29.42 in0.6 miESE (120°)15.0 mphFog-SnowLight Snow
8:30 PM26.6 °F24.8 °F93 %29.42 in1.2 miESE (120°)13.8 mphSnowLight Snow
9:00 PM26.6 °F24.8 °F93 %29.39 in1.1 miESE (120°)15.0 mphSnowLight Snow
9:30 PM26.6 °F24.8 °F93 %29.39 in1.6 miSE (130°)15.0 mphSnowLight Snow
10:00 PM26.6 °F24.8 °F93 %29.39 inESE (120°)12.7 mphFog-SnowHeavy Snow
10:30 PM26.6 °F24.8 °F93 %29.39 in0.6 miSE (130°)9.2 mphSnowLight Snow
11:00 PM26.6 °F24.8 °F93 %29.39 in0.7 miSE (130°)6.9 mphSnowLight Snow
11:30 PM26.6 °F24.8 °F93 %29.36 in0.6 miESE (120°)9.2 mphSnowLight Snow
Hourly data recorded from LFOP, located miles away from Oissel, France







STORIES FROM OUR PARTNERS